FW6569 Weather Reports


Display with metric or nautical units.
time (UTC)temp
F
wind
direction
speed
MPH
gust
MPH
rain 1hr
in
rain 24hr
in
rain mn
in
humidity
%
barometer
mb
20260905222026 88 0.0 0.0 0.00 0.00 0.00 71 1012.5
20260905221026 89 0.0 0.0 0.00 0.00 0.00 68 1012.5
20260905220026 91 0.0 0.0 0.00 0.00 0.00 63 1012.5
20260905215026 93 297 1.0 3.0 0.00 0.00 0.00 58 1012.4
20260905214026 94 278 2.0 4.0 0.00 0.00 0.00 55 1012.4
20260905213026 95 328 1.0 2.0 0.00 0.00 0.00 55 1012.5
20260905212026 96 347 3.0 6.0 0.00 0.00 0.00 53 1012.6
20260905211525 95 268 1.0 3.0 0.00 0.00 0.00 54 1012.7
20260905210526 96 345 2.0 4.0 0.00 0.00 0.00 53 1012.8
20260905205526 96 9 1.0 3.0 0.00 0.00 0.00 53 1013.0
20260905204527 95 247 2.0 5.0 0.00 0.00 0.00 52 1013.1
20260905203526 95 332 3.0 5.0 0.00 0.00 0.00 52 1013.1
20260905202526 95 229 4.0 7.0 0.00 0.00 0.00 56 1013.2
20260905201526 94 211 5.0 8.0 0.00 0.00 0.00 53 1013.4
20260905200526 94 217 6.0 8.0 0.00 0.00 0.00 53 1013.5
20260905195546 94 210 4.0 8.0 0.00 0.00 0.00 52 1013.6
20260905194526 94 235 5.0 9.0 0.00 0.00 0.00 54 1013.6
20260905193526 93 210 3.0 6.0 0.00 0.00 0.00 53 1013.8
20260905192526 93 220 5.0 7.0 0.00 0.00 0.00 55 1013.9
20260905191526 92 205 4.0 6.0 0.00 0.00 0.00 55 1014.0
20260905190526 91 217 6.0 10.0 0.00 0.00 0.00 58 1014.1
20260905185526 91 220 6.0 8.0 0.00 0.00 0.00 57 1014.2
20260905184526 91 207 5.0 7.0 0.00 0.00 0.00 58 1014.4
20260905183526 90 212 7.0 12.0 0.00 0.00 0.00 58 1014.5
20260905182526 90 215 5.0 8.0 0.00 0.00 0.00 58 1014.6
20260905181546 90 227 5.0 10.0 0.00 0.00 0.00 58 1014.5
20260905180526 89 205 7.0 10.0 0.00 0.00 0.00 59 1014.6
20260905175526 89 212 6.0 10.0 0.00 0.00 0.00 59 1014.6
20260905174526 89 205 7.0 10.0 0.00 0.00 0.00 58 1014.7
20260905173526 89 190 6.0 9.0 0.00 0.00 0.00 59 1014.8
20260905172547 89 203 6.0 10.0 0.00 0.00 0.00 58 1015.0
20260905171526 88 205 5.0 8.0 0.00 0.00 0.00 58 1015.2
20260905170526 89 218 4.0 7.0 0.00 0.00 0.00 57 1015.4
20260905165526 88 207 3.0 5.0 0.00 0.00 0.00 58 1015.7
20260905164526 87 167 5.0 8.0 0.00 0.00 0.00 58 1015.7
20260905163607 87 239 3.0 8.0 0.00 0.00 0.00 58 1015.9
20260905162526 85 217 6.0 9.0 0.00 0.00 0.00 60 1015.8
20260905161526 86 188 6.0 8.0 0.00 0.00 0.00 60 1015.9
20260905160528 86 216 5.0 8.0 0.00 0.00 0.00 60 1015.8
20260905155526 86 186 4.0 6.0 0.00 0.00 0.00 59 1015.8
20260905154607 86 180 5.0 8.0 0.00 0.00 0.00 59 1015.7
20260905153526 86 195 4.0 6.0 0.00 0.00 0.00 58 1015.8
20260905152526 84 174 2.0 5.0 0.00 0.00 0.00 60 1015.7
20260905151527 84 194 6.0 9.0 0.00 0.00 0.00 61 1015.7
20260905150526 84 167 4.0 6.0 0.00 0.00 0.00 60 1015.7
20260905145526 83 126 4.0 6.0 0.00 0.00 0.00 61 1015.7
20260905144547 82 140 4.0 9.0 0.00 0.00 0.00 62 1015.7
20260905143527 81 141 6.0 9.0 0.00 0.00 0.00 63 1015.7
20260905142708 81 119 5.0 10.0 0.00 0.00 0.00 63 1015.8
20260905141527 80 99 6.0 9.0 0.00 0.00 0.00 67 1015.9
20260905140526 79 118 4.0 8.0 0.00 0.00 0.00 69 1016.1
20260905135526 78 115 7.0 10.0 0.00 0.00 0.00 70 1016.1
20260905134526 78 87 5.0 9.0 0.00 0.00 0.00 70 1016.4
20260905133547 77 125 5.0 8.0 0.00 0.00 0.00 73 1016.6
20260905132527 76 100 5.0 8.0 0.00 0.00 0.00 74 1016.8
20260905131547 75 103 5.0 9.0 0.00 0.00 0.00 77 1016.6
20260905130527 75 111 6.0 9.0 0.00 0.00 0.00 79 1016.7
20260905125527 73 90 5.0 8.0 0.00 0.00 0.00 82 1016.8
20260905124527 72 109 4.0 7.0 0.00 0.00 0.00 83 1016.7
20260905123527 72 99 6.0 8.0 0.00 0.00 0.00 83 1016.9
20260905122527 72 58 4.0 6.0 0.00 0.00 0.00 84 1017.0
20260905121547 71 77 6.0 9.0 0.00 0.00 0.00 85 1016.8
20260905120527 71 69 5.0 7.0 0.00 0.00 0.00 85 1016.7
20260905115527 71 90 6.0 9.0 0.00 0.00 0.00 84 1016.8
20260905114547 72 76 6.0 9.0 0.00 0.00 0.00 83 1016.7
20260905113527 72 73 6.0 9.0 0.00 0.00 0.00 83 1016.7
20260905112547 72 58 4.0 6.0 0.00 0.00 0.00 83 1016.7
20260905111527 72 32 9.0 12.0 0.00 0.00 0.00 83 1016.6
20260905110547 73 14 7.0 10.0 0.00 0.00 0.00 84 1016.4
20260905105547 73 21 13.0 19.0 0.00 0.00 0.00 84 1016.2
20260905104547 73 22 17.0 27.0 0.00 0.00 0.00 92 1015.8
20260905103547 72 11 5.0 17.0 0.00 0.00 0.00 99 1015.1
20260905102527 71 0.0 0.0 0.00 0.00 0.00 99 1014.8
20260905101527 71 0.0 0.0 0.00 0.00 0.00 99 1014.8
20260905100547 71 0.0 0.0 0.00 0.00 0.00 99 1014.9
20260905095528 71 0.0 0.0 0.00 0.00 0.00 99 1014.9
20260905094527 71 0.0 0.0 0.00 0.00 0.00 99 1014.9
20260905093527 72 0.0 0.0 0.00 0.00 0.00 99 1014.7
20260905092527 72 0.0 0.0 0.00 0.00 0.00 99 1014.7
20260905091607 72 0.0 0.0 0.00 0.00 0.00 99 1014.5
20260905090527 72 0.0 0.0 0.00 0.00 0.00 99 1014.5
20260905085527 72 0.0 0.0 0.00 0.00 0.00 99 1014.5
20260905084527 72 0.0 0.0 0.00 0.00 0.00 99 1014.6
20260905083527 72 0.0 0.0 0.00 0.00 0.00 99 1014.5
20260905082527 72 0.0 0.0 0.00 0.00 0.00 99 1014.5
20260905081548 72 0.0 0.0 0.00 0.00 0.00 98 1014.3
20260905080527 72 0.0 0.0 0.00 0.00 0.00 98 1014.2
20260905075528 72 0.0 0.0 0.00 0.00 0.00 98 1014.0
20260905074527 72 0.0 0.0 0.00 0.00 0.00 98 1013.9
20260905073527 72 0.0 0.0 0.00 0.00 0.00 98 1013.9
20260905072527 72 0.0 0.0 0.00 0.00 0.00 98 1013.9
20260905071527 72 0.0 0.0 0.00 0.00 0.00 98 1014.0
20260905070527 72 0.0 0.0 0.00 0.00 0.00 98 1014.2
20260905065548 72 0.0 0.0 0.00 0.00 0.00 98 1014.4
20260905064527 72 0.0 0.0 0.00 0.00 0.00 98 1014.5
20260905063528 72 0.0 0.0 0.00 0.00 0.00 98 1014.6
20260905062527 72 0.0 0.0 0.00 0.00 0.00 98 1014.7
20260905061528 72 0.0 0.0 0.00 0.00 0.00 98 1014.8
20260905060548 72 0.0 0.0 0.00 0.00 0.00 98 1014.9
20260905055528 72 0.0 0.0 0.00 0.00 0.00 98 1015.0
20260905054528 72 0.0 0.0 0.00 0.00 0.00 98 1015.0
20260905053528 73 0.0 0.0 0.00 0.00 0.00 98 1015.1
20260905052548 73 0.0 0.0 0.00 0.00 0.00 97 1015.3
20260905051528 73 0.0 0.0 0.00 0.00 0.00 97 1015.4
20260905050528 73 0.0 0.0 0.00 0.00 0.00 97 1015.5
20260905045528 73 0.0 0.0 0.00 0.00 0.00 97 1015.5
20260905044549 73 0.0 0.0 0.00 0.00 0.00 97 1015.6
20260905043528 73 0.0 0.0 0.00 0.00 0.00 96 1015.6
20260905042528 73 0.0 0.0 0.00 0.00 0.00 96 1015.6
20260905041528 73 0.0 0.0 0.00 0.00 0.00 96 1015.5
20260905040528 74 0.0 0.0 0.00 0.00 0.00 96 1015.6
20260905035549 74 0.0 0.0 0.00 0.00 0.00 95 1015.6
20260905034528 74 0.0 0.0 0.00 0.00 0.00 95 1015.6
20260905033528 74 0.0 0.0 0.00 0.00 0.00 95 1015.6
20260905032528 74 0.0 0.0 0.00 0.00 0.00 95 1015.6
20260905031548 74 0.0 0.0 0.00 0.00 0.00 94 1015.5
20260905030528 75 0.0 0.0 0.00 0.00 0.00 94 1015.5
20260905025548 75 0.0 0.0 0.00 0.00 0.00 94 1015.5
20260905024528 75 0.0 0.0 0.00 0.00 0.00 93 1015.6
20260905023528 75 0.0 0.0 0.00 0.00 0.00 93 1015.6
20260905022528 75 0.0 0.0 0.00 0.00 0.00 93 1015.6
20260905021528 76 0.0 0.0 0.00 0.00 0.00 92 1015.5
20260905020528 76 0.0 0.0 0.00 0.00 0.00 91 1015.5
20260905015528 76 0.0 0.0 0.00 0.00 0.00 90 1015.4
20260905014528 77 0.0 0.0 0.00 0.00 0.00 90 1015.3
20260905013528 77 0.0 0.0 0.00 0.00 0.00 90 1015.2
20260905012528 77 0.0 0.0 0.00 0.00 0.00 88 1015.1
20260905011528 78 0.0 0.0 0.00 0.00 0.00 87 1015.1
20260905010528 78 0.0 0.0 0.00 0.00 0.00 86 1015.1
20260905005528 79 0.0 0.0 0.00 0.00 0.00 86 1015.1
20260905004528 79 7 1.0 3.0 0.00 0.00 0.00 85 1015.1
20260905003528 80 356 2.0 3.0 0.00 0.00 0.00 84 1014.9
20260905002548 80 8 2.0 3.0 0.00 0.00 0.00 84 1014.9
20260905001529 81 8 3.0 4.0 0.00 0.00 0.00 82 1015.0
20260905000549 82 11 3.0 4.0 0.00 0.00 0.00 81 1014.9
20260904235548 82 8 3.0 4.0 0.00 0.00 0.00 80 1014.8
20260904234528 83 7 2.0 3.0 0.00 0.00 0.00 79 1014.7
20260904233548 84 354 0.0 1.0 0.00 0.00 0.00 77 1014.5
20260904232518 85 14 0.0 2.0 0.00 0.00 0.00 75 1014.5
20260904231518 86 7 2.0 4.0 0.00 0.00 0.00 72 1014.6
20260904230518 87 34 3.0 4.0 0.00 0.00 0.00 70 1014.7
20260904225519 87 26 3.0 5.0 0.00 0.00 0.00 70 1014.7
20260904224519 88 25 4.0 6.0 0.00 0.00 0.00 68 1014.8
20260904223518 90 71 5.0 7.0 0.00 0.00 0.00 66 1014.8